| time (UTC) | temp C | wind direction | speed KPH | gust KPH | rain 1hr cm | rain 24hr cm | rain mn cm | humidity % | barometer mb |
| 20260505061523 | 12 | 118 | 0.0 | 0.0 | 0.00 | 0.00 | 0.00 | 88 | 1014.4 |
| 20260505060021 | 12 | 118 | 0.0 | 0.0 | 0.00 | 0.00 | 0.00 | 87 | 1014.5 |
| 20260505054530 | 13 | 118 | 0.0 | 0.0 | 0.00 | 0.00 | 0.00 | 86 | 1014.8 |
| 20260505053007 | 13 | 118 | 0.0 | 0.0 | 0.00 | 0.00 | 0.00 | 84 | 1014.7 |
| 20260505051520 | 13 | 118 | 0.0 | 0.0 | 0.00 | 0.00 | 0.00 | 83 | 1014.7 |
| 20260505041510 | 15 | 147 | 0.0 | 0.0 | 0.00 | 0.00 | 0.00 | 78 | 1014.9 |
| 20260505040018 | 16 | 141 | 0.0 | 3.2 | 0.00 | 0.00 | 0.00 | 76 | 1014.7 |
| 20260505034524 | 16 | 120 | 0.0 | 8.0 | 0.00 | 0.00 | 0.00 | 74 | 1014.7 |
| 20260505033025 | 16 | 133 | 1.6 | 6.4 | 0.00 | 0.00 | 0.00 | 73 | 1014.6 |
| 20260505031537 | 17 | 139 | 1.6 | 8.0 | 0.00 | 0.00 | 0.00 | 72 | 1014.6 |
| 20260505030012 | 17 | 181 | 0.0 | 8.0 | 0.00 | 0.00 | 0.00 | 72 | 1014.4 |
| 20260505024517 | 17 | 125 | 0.0 | 6.4 | 0.00 | 0.00 | 0.00 | 73 | 1014.4 |
| 20260505023020 | 17 | 121 | 0.0 | 3.2 | 0.00 | 0.00 | 0.00 | 72 | 1014.5 |
| 20260505021506 | 17 | 151 | 1.6 | 8.0 | 0.00 | 0.00 | 0.00 | 71 | 1014.5 |
| 20260505020007 | 17 | 85 | 1.6 | 3.2 | 0.00 | 0.00 | 0.00 | 73 | 1014.3 |
| 20260505014512 | 17 | 130 | 0.0 | 1.6 | 0.00 | 0.00 | 0.00 | 75 | 1014.1 |
| 20260505013018 | 17 | 114 | 0.0 | 1.6 | 0.00 | 0.00 | 0.00 | 75 | 1014.1 |
| 20260505011521 | 18 | 176 | 0.0 | 1.6 | 0.00 | 0.00 | 0.00 | 73 | 1013.9 |
| 20260505010006 | 19 | 176 | 0.0 | 0.0 | 0.00 | 0.00 | 0.00 | 68 | 1013.9 |
| 20260505004512 | 21 | 176 | 0.0 | 3.2 | 0.00 | 0.00 | 0.00 | 60 | 1013.9 |
| 20260505003015 | 22 | 194 | 1.6 | 6.4 | 0.00 | 0.00 | 0.00 | 55 | 1013.8 |
| 20260505001521 | 24 | 115 | 3.2 | 6.4 | 0.00 | 0.00 | 0.00 | 49 | 1013.6 |
| 20260505000025 | 25 | 205 | 0.0 | 11.3 | 0.00 | 0.00 | 0.00 | 48 | 1013.7 |
| 20260504234509 | 25 | 136 | 6.4 | 12.9 | 0.00 | 0.00 | 0.00 | 46 | 1013.7 |
| 20260504233012 | 25 | 215 | 4.8 | 12.9 | 0.00 | 0.00 | 0.00 | 44 | 1013.8 |
| 20260504231517 | 26 | 134 | 3.2 | 9.7 | 0.00 | 0.00 | 0.00 | 43 | 1013.8 |
| 20260504230023 | 26 | 213 | 4.8 | 12.9 | 0.00 | 0.00 | 0.00 | 41 | 1013.9 |
| 20260504224524 | 26 | 141 | 6.4 | 11.3 | 0.00 | 0.00 | 0.00 | 42 | 1014.1 |
| 20260504223013 | 26 | 219 | 4.8 | 11.3 | 0.00 | 0.00 | 0.00 | 39 | 1014.3 |
| 20260504221515 | 26 | 198 | 3.2 | 12.9 | 0.00 | 0.00 | 0.00 | 39 | 1014.4 |
| 20260504220019 | 27 | 174 | 0.0 | 16.1 | 0.00 | 0.00 | 0.00 | 38 | 1014.4 |
| 20260504214525 | 27 | 229 | 4.8 | 11.3 | 0.00 | 0.00 | 0.00 | 39 | 1014.6 |
| 20260504213037 | 27 | 105 | 3.2 | 14.5 | 0.00 | 0.00 | 0.00 | 38 | 1014.6 |
| 20260504211510 | 26 | 237 | 9.7 | 22.5 | 0.00 | 0.00 | 0.00 | 36 | 1014.6 |
| 20260504210014 | 27 | 243 | 3.2 | 16.1 | 0.00 | 0.00 | 0.00 | 38 | 1014.7 |
| 20260504204534 | 26 | 271 | 9.7 | 19.3 | 0.00 | 0.00 | 0.00 | 38 | 1014.9 |
| 20260504203026 | 26 | 243 | 3.2 | 12.9 | 0.00 | 0.00 | 0.00 | 39 | 1015.1 |
| 20260504201525 | 27 | 219 | 6.4 | 17.7 | 0.00 | 0.00 | 0.00 | 38 | 1015.4 |
| 20260504200011 | 27 | 174 | 6.4 | 14.5 | 0.00 | 0.00 | 0.00 | 37 | 1015.6 |
| 20260504194518 | 27 | 256 | 4.8 | 19.3 | 0.00 | 0.00 | 0.00 | 38 | 1015.8 |
| 20260504193023 | 27 | 152 | 8.0 | 14.5 | 0.00 | 0.00 | 0.00 | 37 | 1016.0 |
| 20260504191525 | 26 | 132 | 3.2 | 14.5 | 0.00 | 0.00 | 0.00 | 39 | 1016.2 |
| 20260504190028 | 26 | 246 | 3.2 | 16.1 | 0.00 | 0.00 | 0.00 | 40 | 1016.2 |
| 20260504184514 | 26 | 131 | 6.4 | 16.1 | 0.00 | 0.00 | 0.00 | 40 | 1016.4 |
| 20260504183020 | 26 | 175 | 3.2 | 14.5 | 0.00 | 0.00 | 0.00 | 39 | 1016.5 |
| 20260504181523 | 26 | 275 | 4.8 | 16.1 | 0.00 | 0.00 | 0.00 | 38 | 1016.7 |
| 20260504180028 | 26 | 221 | 4.8 | 14.5 | 0.00 | 0.00 | 0.00 | 40 | 1016.9 |
| 20260504174525 | 26 | 231 | 1.6 | 9.7 | 0.00 | 0.00 | 0.00 | 40 | 1017.0 |
| 20260504173014 | 26 | 106 | 1.6 | 17.7 | 0.00 | 0.00 | 0.00 | 39 | 1017.2 |
| 20260504171504 | 25 | 259 | 6.4 | 11.3 | 0.00 | 0.00 | 0.00 | 41 | 1017.8 |
| 20260504081512 | 7 | 117 | 0.0 | 0.0 | 0.00 | 0.00 | 0.00 | 94 | 1018.3 |